< < Back
Terminal Aerodrome Forecast


Current Version              Previous Versions:   1  2  3  4  5  6  7  8  9  

Terminal Aerodrome Forecast

249
FTUS44 KMRX 182320
TAFTYS
TAF
KTYS 182320Z 1900/1924 03007KT P6SM VCSH SCT035 BKN100
      TEMPO 1900/1902 5SM -RA BR
     FM190900 04007KT 4SM -SHRA BR OVC035
     FM191400 10007KT 2SM RA BR VCTS SCT008 OVC015CB
     FM191600 22014G24KT P6SM VCTS BKN025CB OVC150=

Latest METAR

414
SAUS80 KWBC 190400
MTRTYS
METAR KTYS 190353Z 00000KT 10SM SCT070 OVC085 18/17 A2992 RMK AO2 SLP125
T01830172 $


USA.gov is the U.S. government's official web portal to all federal, state and local government web resources and services.